Starlink 3608

operational
NORAD ID: 51776 Int'l Des: 2022-017 Owner: SPXS Country: US Constellation: starlink
LEOCIRCULAR

Starlink 3608について

説明を読み込み中...

リアルタイム位置

3D地球を読み込み中...

次回通過

高度履歴

Altitude vs Time

uPlot chart will show altitude changes over time

軌道要素

1 51776U 22017J 25259.11505608 .00000714 00000-0 62916-4 0 9997
2 51776 53.2193 42.8162 0001240 91.7235 268.3899 15.08842266196214
Epoch: Sep 16, 2025 • Age: 10 hours

現在のステータス

高度 543.5 km
速度 7.60 km/s
衛星直下点 44.37°N, 13.84°W
打ち上げ日 Feb 25, 2022
運用期間 3.5 years
タイプ internet

技術仕様

分類 Payload
質量 297.00 kg
乾燥質量 275.00 kg
総質量 297.00 kg
長さ 0.20 m
直径 2.80 m
スパン 9.00 m
形状 Box + pan
製造者 SPXS
バスタイプ Starlink
フェーズステータス In Orbit
所有者/国 SPXS/US

大規模コンステレーション

Loading constellations...